Location: ??????
(55.2000°N, 38.3000°E)
Time: 18:11:21
(UTC+00:00)

Cosmos 1980 Rocket - Pass Details

Date: 15 November 2025
Orbit: 829 x 848 km, 71.0° (Epoch: 14 December)

Event Time Altitude Azimuth Distance (km) Brightness Sun altitude
Exits shadow 03:20:15 - 329° (NNW) 2,657 4.4 -13.9°
Reaches altitude 10° 03:20:55 10° 334° (NNW) 2,472 4.3 -13.8°
Maximum altitude 03:25:06 21° 22° (NNE) 1,826 4.0 -13.2°
Drops below altitude 10° 03:29:17 10° 70° (ENE) 2,457 5.5 -12.6°
Sets 03:32:21 0° 86° (E) 3,386 6.9 -12.2°
